Location: Unspecified
(43.8688°N, 3.6914°E)
Time: 11:39:01
(UTC+02:00)

ISS - Visible Passes

Search period start: 25 September 2017 00:00
Search period end: 05 October 2017 00:00
Orbit: 401 x 407 km, 51.6° (Epoch: 25 September)

Date Brightness Start Highest point End Pass type
(mag) Time Alt. Az. Time Alt. Az. Time Alt. Az.
25 Sep -3.0 21:17:06 10° SW 21:19:29 38° S 21:19:29 38° S visible
26 Sep -2.7 20:25:13 10° SSW 20:28:02 27° SE 20:29:49 17° E visible
26 Sep -1.3 22:01:12 10° W 22:02:30 21° W 22:02:30 21° W visible
27 Sep -3.8 21:08:41 10° WSW 21:11:57 75° NNW 21:12:39 51° NE visible
28 Sep -3.8 20:16:21 10° SW 20:19:35 61° SE 20:22:37 11° ENE visible
28 Sep -1.5 21:53:18 10° W 21:55:17 25° NW 21:55:17 25° NW visible
29 Sep -2.7 21:00:35 10° W 21:03:42 40° NNW 21:05:08 25° NNE visible
30 Sep -3.4 20:07:58 10° WSW 20:11:13 63° NNW 20:14:28 10° NE visible
30 Sep -1.5 21:45:28 10° WNW 21:47:30 21° NNW 21:47:30 21° NNW visible
01 Oct -2.0 20:52:39 10° WNW 20:55:30 27° NNW 20:57:10 18° NNE visible
02 Oct -2.5 19:59:52 10° W 20:02:55 35° NNW 20:05:59 10° NE visible
02 Oct -1.4 21:37:29 10° NW 21:39:24 19° NNW 21:39:24 19° NNW visible
03 Oct -1.8 20:44:43 10° WNW 20:47:20 22° N 20:48:57 16° NNE visible
04 Oct -2.0 19:51:52 10° WNW 19:54:40 25° NNW 19:57:27 10° NE visible
04 Oct -1.5 21:29:14 10° NW 21:31:06 20° NNW 21:31:06 20° NNW visible
